BEIDOU-3 M12 (C26)

Last updated on Mon Jun 22 2026 00:03:31 GMT+0000 (Coordinated Universal Time)

1 43602U 18067A 26172.20462948 .00000079 00000+0 00000+0 0 9994 2 43602 54.1808 180.9038 0007825 29.8811 330.1852 1.86227642 53191
UTC large
Height (km)
Speed (km/s)
/
Latitude / Longitude
Inclination (degrees)
Orbital Period (minutes)
Azimuth
Elevation
Range (km)
Doppler Factor

Next 0 passes for location: London (51.5072 / 0.1276)

No passes found over London.
BEIDOU-3 M12 (C26)